GLO9570 SBCF-SBGL

Flight info

Callsign GLO9570
Flight time 0h 39m
Altitude 28000
Route MAVGU
Aircraft B738/M-SDFGIKLORWXY/LB1

Departure

Time 2026-05-06 16:56
Airport Tancredo Neves International Airport (SBCF)

Arrival

Time 2026-05-06 17:36
Airport Rio Galeão – Tom Jobim International Airport (SBGL)
Time Latitude Longitude Altitude Speed Heading
2026-05-06 16:37 -19.63290 -43.96432 2832 ft 0 kts 56°
2026-05-06 16:46 -19.63292 -43.96436 2840 ft 2 kts 54°
2026-05-06 16:46 -19.63304 -43.96452 2839 ft 3 kts 41°
2026-05-06 16:46 -19.63319 -43.96462 2840 ft 3 kts
2026-05-06 16:46 -19.63333 -43.96461 2841 ft 2 kts 321°
2026-05-06 16:47 -19.63334 -43.96459 2840 ft 1 kts 319°
2026-05-06 16:49 -19.63323 -43.96470 2841 ft 7 kts 319°
2026-05-06 16:49 -19.63268 -43.96521 2841 ft 12 kts 319°
2026-05-06 16:49 -19.63208 -43.96575 2841 ft 11 kts 320°
2026-05-06 16:49 -19.63208 -43.96641 2839 ft 11 kts 226°
2026-05-06 16:50 -19.63258 -43.96700 2839 ft 10 kts 235°
2026-05-06 16:50 -19.63251 -43.96762 2840 ft 8 kts 318°
2026-05-06 16:50 -19.63207 -43.96800 2839 ft 8 kts 319°
2026-05-06 16:50 -19.63158 -43.96845 2841 ft 10 kts 319°
2026-05-06 16:51 -19.63105 -43.96894 2841 ft 11 kts 319°
2026-05-06 16:51 -19.63048 -43.96948 2841 ft 11 kts 318°
2026-05-06 16:51 -19.62992 -43.97000 2842 ft 10 kts 319°
2026-05-06 16:51 -19.62939 -43.97049 2842 ft 10 kts 319°
2026-05-06 16:52 -19.62888 -43.97097 2842 ft 10 kts 316°
2026-05-06 16:52 -19.62884 -43.97157 2844 ft 4 kts 230°
2026-05-06 16:52 -19.62884 -43.97158 2844 ft 0 kts 230°
2026-05-06 16:53 -19.62885 -43.97159 2842 ft 1 kts 230°
2026-05-06 16:53 -19.62888 -43.97162 2845 ft 1 kts 230°
2026-05-06 16:53 -19.62891 -43.97167 2844 ft 0 kts 230°
2026-05-06 16:53 -19.62894 -43.97170 2843 ft 1 kts 230°
2026-05-06 16:54 -19.62899 -43.97176 2846 ft 0 kts 230°
2026-05-06 16:54 -19.62900 -43.97177 2846 ft 0 kts 230°
2026-05-06 16:54 -19.62922 -43.97207 2844 ft 9 kts 238°
2026-05-06 16:55 -19.62917 -43.97274 2844 ft 11 kts 315°
2026-05-06 16:55 -19.62907 -43.97296 2845 ft 2 kts 256°
2026-05-06 16:55 -19.62914 -43.97300 2845 ft 1 kts 190°
2026-05-06 16:55 -19.62919 -43.97296 2845 ft 1 kts 139°
2026-05-06 16:56 -19.63037 -43.97185 2845 ft 62 kts 141°
2026-05-06 16:56 -19.63574 -43.96687 2841 ft 139 kts 140°
2026-05-06 16:56 -19.64441 -43.95896 3102 ft 178 kts 137°
2026-05-06 16:56 -19.65433 -43.95173 4217 ft 174 kts 157°
2026-05-06 16:57 -19.66740 -43.95082 4758 ft 207 kts 181°
2026-05-06 16:57 -19.68271 -43.95243 5026 ft 241 kts 184°
2026-05-06 16:57 -19.70057 -43.95463 5421 ft 269 kts 185°
2026-05-06 16:57 -19.71962 -43.95704 6282 ft 277 kts 185°
2026-05-06 16:58 -19.73889 -43.95758 7279 ft 278 kts 173°
2026-05-06 16:58 -19.75801 -43.95475 8174 ft 284 kts 168°
2026-05-06 16:58 -19.77765 -43.95090 9123 ft 289 kts 167°
2026-05-06 16:58 -19.79772 -43.94680 10097 ft 296 kts 167°
2026-05-06 16:59 -19.81834 -43.94265 10696 ft 316 kts 168°
2026-05-06 16:59 -19.84063 -43.93827 11362 ft 329 kts 168°
2026-05-06 16:59 -19.86337 -43.93392 12283 ft 333 kts 169°
2026-05-06 16:59 -19.88605 -43.92967 13297 ft 335 kts 170°
2026-05-06 17:00 -19.90930 -43.92537 14251 ft 340 kts 170°
2026-05-06 17:00 -19.93252 -43.92113 15151 ft 342 kts 171°
2026-05-06 17:00 -19.95609 -43.91684 16160 ft 343 kts 171°
2026-05-06 17:00 -19.97989 -43.91253 17085 ft 347 kts 171°
2026-05-06 17:01 -20.00356 -43.90825 17953 ft 352 kts 171°
2026-05-06 17:01 -20.02797 -43.90385 18777 ft 356 kts 171°
2026-05-06 17:01 -20.05261 -43.89941 19522 ft 360 kts 171°
2026-05-06 17:01 -20.07721 -43.89497 20327 ft 363 kts 172°
2026-05-06 17:02 -20.10223 -43.89045 21182 ft 365 kts 172°
2026-05-06 17:02 -20.12731 -43.88592 22192 ft 361 kts 172°
2026-05-06 17:02 -20.15194 -43.88146 23270 ft 356 kts 172°
2026-05-06 17:02 -20.17633 -43.87704 24173 ft 355 kts 173°
2026-05-06 17:03 -20.20042 -43.87269 24953 ft 354 kts 173°
2026-05-06 17:03 -20.22452 -43.86833 25788 ft 352 kts 173°
2026-05-06 17:03 -20.24858 -43.86398 26672 ft 349 kts 173°
2026-05-06 17:03 -20.27254 -43.85964 27536 ft 347 kts 173°
2026-05-06 17:04 -20.29643 -43.85532 27973 ft 344 kts 173°
2026-05-06 17:04 -20.32018 -43.85102 28153 ft 347 kts 174°
2026-05-06 17:04 -20.34394 -43.84674 28153 ft 350 kts 174°
2026-05-06 17:05 -20.39181 -43.83806 28161 ft 348 kts 174°
2026-05-06 17:05 -20.43964 -43.82939 28175 ft 347 kts 174°
2026-05-06 17:06 -20.48720 -43.82076 28167 ft 347 kts 173°
2026-05-06 17:06 -20.53475 -43.81214 28165 ft 347 kts 173°
2026-05-06 17:07 -20.58222 -43.80352 28165 ft 347 kts 173°
2026-05-06 17:07 -20.63000 -43.79484 28168 ft 347 kts 173°
2026-05-06 17:08 -20.67747 -43.78621 28164 ft 348 kts 173°
2026-05-06 17:08 -20.72537 -43.77750 28161 ft 348 kts 173°
2026-05-06 17:09 -20.77294 -43.76883 28167 ft 348 kts 173°
2026-05-06 17:09 -20.82089 -43.76010 28159 ft 348 kts 173°
2026-05-06 17:10 -20.86837 -43.75144 28159 ft 347 kts 173°
2026-05-06 17:10 -20.91584 -43.74279 28172 ft 348 kts 173°
2026-05-06 17:11 -20.96366 -43.73406 28201 ft 348 kts 173°
2026-05-06 17:11 -21.01124 -43.72537 28233 ft 347 kts 173°
2026-05-06 17:12 -21.05872 -43.71670 28266 ft 347 kts 173°
2026-05-06 17:12 -21.10628 -43.70799 28297 ft 347 kts 173°
2026-05-06 17:13 -21.15404 -43.69926 28323 ft 348 kts 173°
2026-05-06 17:13 -21.20186 -43.69051 28347 ft 348 kts 172°
2026-05-06 17:14 -21.24948 -43.68178 28351 ft 348 kts 172°
2026-05-06 17:14 -21.29727 -43.67302 27951 ft 351 kts 172°
2026-05-06 17:14 -21.32140 -43.66859 27492 ft 351 kts 172°
2026-05-06 17:15 -21.34542 -43.66418 27016 ft 350 kts 172°
2026-05-06 17:15 -21.36956 -43.65975 26514 ft 351 kts 172°
2026-05-06 17:15 -21.39338 -43.65537 26011 ft 352 kts 171°
2026-05-06 17:15 -21.41756 -43.65093 25483 ft 353 kts 171°
2026-05-06 17:16 -21.44186 -43.64647 25011 ft 353 kts 171°
2026-05-06 17:16 -21.46585 -43.64206 24559 ft 352 kts 171°
2026-05-06 17:16 -21.49003 -43.63761 24104 ft 352 kts 171°
2026-05-06 17:16 -21.51420 -43.63316 23636 ft 351 kts 171°
2026-05-06 17:17 -21.53805 -43.62877 23144 ft 349 kts 171°
2026-05-06 17:17 -21.56203 -43.62436 22681 ft 347 kts 171°
2026-05-06 17:17 -21.58576 -43.61999 22232 ft 344 kts 171°
2026-05-06 17:17 -21.60931 -43.61565 21808 ft 342 kts 171°
2026-05-06 17:18 -21.63258 -43.61135 21390 ft 340 kts 171°
2026-05-06 17:18 -21.65584 -43.60706 20965 ft 338 kts 171°
2026-05-06 17:18 -21.67904 -43.60279 20546 ft 336 kts 171°
2026-05-06 17:18 -21.70204 -43.59855 20138 ft 334 kts 171°
2026-05-06 17:19 -21.72497 -43.59432 19729 ft 333 kts 170°
2026-05-06 17:19 -21.74758 -43.59015 19318 ft 332 kts 170°
2026-05-06 17:19 -21.77041 -43.58594 18905 ft 331 kts 170°
2026-05-06 17:19 -21.79314 -43.58174 18471 ft 331 kts 170°
2026-05-06 17:20 -21.81554 -43.57760 18025 ft 330 kts 170°
2026-05-06 17:20 -21.83810 -43.57344 17594 ft 328 kts 170°
2026-05-06 17:20 -21.86053 -43.56929 17177 ft 326 kts 170°
2026-05-06 17:20 -21.88293 -43.56516 16760 ft 324 kts 170°
2026-05-06 17:21 -21.90487 -43.56110 16357 ft 322 kts 170°
2026-05-06 17:21 -21.92695 -43.55702 15971 ft 321 kts 170°
2026-05-06 17:21 -21.94898 -43.55293 15564 ft 319 kts 169°
2026-05-06 17:21 -21.97082 -43.54889 15187 ft 318 kts 169°
2026-05-06 17:22 -21.99264 -43.54485 14751 ft 318 kts 169°
2026-05-06 17:22 -22.01417 -43.54087 14361 ft 317 kts 169°
2026-05-06 17:22 -22.03588 -43.53684 13951 ft 316 kts 169°
2026-05-06 17:22 -22.05765 -43.53281 13513 ft 315 kts 169°
2026-05-06 17:23 -22.07930 -43.52879 13088 ft 314 kts 169°
2026-05-06 17:23 -22.10080 -43.52481 12685 ft 312 kts 169°
2026-05-06 17:23 -22.12191 -43.52090 12289 ft 311 kts 169°
2026-05-06 17:23 -22.14330 -43.51693 11899 ft 309 kts 169°
2026-05-06 17:24 -22.16450 -43.51300 11499 ft 308 kts 169°
2026-05-06 17:24 -22.18556 -43.50906 11107 ft 306 kts 169°
2026-05-06 17:24 -22.20622 -43.50522 10721 ft 305 kts 169°
2026-05-06 17:24 -22.22719 -43.50130 10355 ft 301 kts 169°
2026-05-06 17:25 -22.24717 -43.49759 10221 ft 281 kts 169°
2026-05-06 17:25 -22.26559 -43.49418 10156 ft 262 kts 169°
2026-05-06 17:25 -22.28303 -43.49096 10039 ft 248 kts 169°
2026-05-06 17:25 -22.30007 -43.48778 9605 ft 248 kts 169°
2026-05-06 17:26 -22.31708 -43.48464 9206 ft 247 kts 169°
2026-05-06 17:26 -22.33381 -43.48153 8812 ft 245 kts 169°
2026-05-06 17:26 -22.35062 -43.47838 8437 ft 244 kts 169°
2026-05-06 17:26 -22.36728 -43.47527 8076 ft 240 kts 169°
2026-05-06 17:27 -22.38363 -43.47222 7808 ft 236 kts 169°
2026-05-06 17:27 -22.39974 -43.46924 7521 ft 239 kts 169°
2026-05-06 17:27 -22.41629 -43.46618 7265 ft 241 kts 169°
2026-05-06 17:27 -22.43290 -43.46308 7012 ft 241 kts 169°
2026-05-06 17:28 -22.44958 -43.45997 6741 ft 244 kts 169°
2026-05-06 17:28 -22.46617 -43.45686 6457 ft 245 kts 170°
2026-05-06 17:28 -22.48304 -43.45370 6180 ft 246 kts 169°
2026-05-06 17:28 -22.49995 -43.45054 5877 ft 247 kts 170°
2026-05-06 17:29 -22.51697 -43.44737 5592 ft 246 kts 170°
2026-05-06 17:29 -22.53363 -43.44426 5319 ft 245 kts 170°
2026-05-06 17:29 -22.55053 -43.44111 4989 ft 247 kts 170°
2026-05-06 17:29 -22.56757 -43.43792 4645 ft 249 kts 170°
2026-05-06 17:30 -22.58460 -43.43474 4360 ft 247 kts 170°
2026-05-06 17:30 -22.60157 -43.43157 4094 ft 246 kts 170°
2026-05-06 17:30 -22.61822 -43.42846 3847 ft 244 kts 170°
2026-05-06 17:30 -22.63479 -43.42537 3722 ft 236 kts 170°
2026-05-06 17:31 -22.65076 -43.42238 3615 ft 229 kts 170°
2026-05-06 17:31 -22.66604 -43.41953 3508 ft 222 kts 170°
2026-05-06 17:31 -22.68105 -43.41672 3411 ft 215 kts 170°
2026-05-06 17:31 -22.69571 -43.41397 3249 ft 213 kts 170°
2026-05-06 17:32 -22.71022 -43.41074 3029 ft 213 kts 158°
2026-05-06 17:32 -22.72164 -43.40107 2854 ft 207 kts 129°
2026-05-06 17:32 -22.73002 -43.38882 2654 ft 202 kts 124°
2026-05-06 17:32 -22.73787 -43.37642 2457 ft 196 kts 125°
2026-05-06 17:33 -22.74565 -43.36456 2269 ft 188 kts 125°
2026-05-06 17:33 -22.75315 -43.35326 2058 ft 181 kts 125°
2026-05-06 17:33 -22.76032 -43.34242 1825 ft 172 kts 124°
2026-05-06 17:33 -22.76705 -43.33225 1625 ft 163 kts 125°
2026-05-06 17:34 -22.77342 -43.32261 1383 ft 150 kts 124°
2026-05-06 17:34 -22.77920 -43.31388 1205 ft 139 kts 126°
2026-05-06 17:34 -22.78291 -43.30829 1088 ft 136 kts 126°
2026-05-06 17:34 -22.79014 -43.29736 849 ft 133 kts 126°
2026-05-06 17:35 -22.79543 -43.28950 706 ft 125 kts 126°
2026-05-06 17:35 -22.79884 -43.28442 620 ft 129 kts 123°
2026-05-06 17:35 -22.80574 -43.27377 379 ft 134 kts 126°
2026-05-06 17:36 -22.81592 -43.25836 26 ft 111 kts 126°
2026-05-06 17:36 -22.81955 -43.25293 25 ft 59 kts 126°
2026-05-06 17:36 -22.82041 -43.25147 27 ft 20 kts 103°
2026-05-06 17:36 -22.82044 -43.25055 22 ft 15 kts 90°
2026-05-06 17:37 -22.82044 -43.24975 22 ft 11 kts 90°
2026-05-06 17:37 -22.82049 -43.24887 23 ft 13 kts 105°
2026-05-06 17:37 -22.82100 -43.24802 21 ft 15 kts 126°
2026-05-06 17:37 -22.82090 -43.24716 20 ft 13 kts 36°
2026-05-06 17:38 -22.82016 -43.24660 23 ft 13 kts 35°
2026-05-06 17:38 -22.81935 -43.24607 20 ft 14 kts 10°
2026-05-06 17:38 -22.81846 -43.24578 21 ft 14 kts 36°
2026-05-06 17:38 -22.81757 -43.24568 21 ft 14 kts 316°
2026-05-06 17:39 -22.81706 -43.24649 21 ft 9 kts 306°
2026-05-06 17:39 -22.81670 -43.24707 21 ft 10 kts 302°
2026-05-06 17:39 -22.81651 -43.24716 21 ft 4 kts
2026-05-06 17:39 -22.81608 -43.24699 21 ft 2 kts 26°
2026-05-06 17:40 -22.81595 -43.24691 21 ft 0 kts 27°